Location: Auckland
(36.8670°S, 174.7670°E)
Time: 09:56:09
(UTC+13:00)

Cosmos 2219 Rocket - Pass Details

Date: 24 January 2019
Orbit: 829 x 845 km, 71.0° (Epoch: 16 February)

Event Time Altitude Azimuth Distance (km) Brightness Sun altitude
Exits shadow 23:36:21 67° 113° (ESE) 921 2.2 -27.5°
Drops below altitude 10° 23:41:30 10° 154° (SSE) 2,493 5.0 -28.1°
Sets 23:43:58 0° 155° (SSE) 3,436 5.8 -28.3°
